Temp
15 14 14 14 13 14 14 15 14 14 14 13 13 13 12 12 12 12 12 11 10 9 11 10 10 11 11 11 10 10 11 11 10 10 10 11 11 10 11 11 11 11 10
15 14 13 13 13 13 14 14 14 14 13 13 13 12 12 11 11 11 11 11 10 8 10 10 10 10 10 10 10 10 10 10 10 10 10 10 10 10 10 10 10 10 10
16 14 13 13 13 13 13 13 13 12 12 12 11 11 11 11 10 10 10 10 10 10 10 9 9 10 10 10 10 10 9 9 9 9 9 9 9 9 9 10 9 9 9
13 13 14 13 13 13 13 13 12 12 11 11 11 10 10 10 10 9 10 9 9 9 9 9 9 9 9 9 9 9 9 9 9 8 8 8 8 9 9 9 9 9 9
12 12 13 13 13 13 14 12 12 12 11 10 10 9 9 9 9 9 8 8 8 8 9 9 9 8 8 8 7 8 8 8 8 8 8 8 8 8 8 8 8 8 8
12 13 12 12 12 12 13 13 11 11 11 10 9 8 8 7 7 7 8 8 8 8 8 8 8 8 7 7 7 7 7 7 7 7 7 7 7 7 7 7 7 8 8
12 12 12 12 11 11 13 12 11 10 9 9 8 7 6 6 6 6 6 6 7 7 7 7 7 7 6 6 6 6 6 6 6 7 6 6 7 7 7 7 6 6 6
13 13 13 12 13 12 12 12 11 10 9 9 8 7 4 4 4 5 5 5 6 6 6 6 6 6 6 5 5 5 5 5 6 6 6 6 6 6 6 6 6 6 6
13 13 12 12 12 11 12 12 13 11 11 9 8 9 5 6 4 4 4 4 5 5 5 5 5 5 5 4 5 5 5 5 5 5 5 5 5 5 5 5 5 5 5
13 13 13 12 12 12 12 11 13 11 10 10 7 8 9 9 5 3 3 3 3 4 4 4 4 4 4 3 4 4 4 4 4 4 4 4 4 4 4 4 4 4 4
12 12 12 13 12 12 11 10 10 10 9 10 10 8 8 8 8 8 3 3 2 3 3 3 3 3 3 3 3 3 4 4 4 4 3 4 4 3 4 4 4 4 4
12 12 13 13 12 12 11 11 10 11 10 9 10 9 9 9 8 9 8 4 4 2 2 2 2 3 3 2 3 3 3 3 3 3 3 3 3 3 3 3 3 3 3
12 11 12 12 11 12 11 10 10 10 10 9 9 9 8 8 8 8 8 6 3 2 1 2 2 2 3 2 2 1 1 2 2 2 2 2 2 2 2 2 2 2 2
8 8 9 8 8 8 8 8 8 9 7 8 8 8 8 7 7 7 7 7 2 1 1 3 2 2 3 2 2 1 1 1 0 1 1 2 1 1 1 1 1 1 1
7 7 7 8 8 4 5 6 5 5 6 7 7 7 6 6 6 5 6 6 6 2 1 2 2 3 2 3 1 0 -0 1 -0 -1 0 0 1 1 1 1 0 0 0
6 6 7 7 6 6 5 6 4 4 4 4 5 5 5 4 4 4 4 4 4 4 3 2 3 3 2 2 -1 -1 -1 -1 -1 -1 -1 -1 -1 -0 -0 -0 -1 -1 -1
6 5 5 5 5 6 5 5 4 3 4 4 3 4 4 3 3 3 3 3 2 3 2 2 2 2 1 1 -1 -2 -1 -1 -2 -2 -3 -3 -3 -2 -2 -2 -2 -2 -2
5 5 5 4 5 4 5 4 3 2 3 3 2 3 2 2 2 2 0 0 2 1 3 2 2 1 0 -0 -1 -2 -2 -2 -3 -3 -4 -4 -4 -4 -3 -3 -3 -3 -2
6 6 5 5 5 4 4 3 3 3 2 2 1 1 1 0 -0 -0 0 0 0 -0 -0 -0 -0 0 -0 -2 -3 -3 -4 -3 -3 -4 -4 -4 -4 -4 -4 -4 -4 -3 -3
6 6 6 5 5 4 4 4 3 2 1 1 0 0 -0 -0 -0 -0 -0 -1 -1 -1 -1 -3 -1 -1 -1 -3 -3 -4 -4 -4 -4 -4 -4 -5 -5 -5 -5 -4 -4 -4 -4
7 5 6 5 5 4 4 3 3 2 2 1 0 0 -0 -1 -1 -1 -1 -1 -1 -2 -4 -2 -2 -2 -3 -4 -4 -4 -4 -5 -5 -5 -5 -5 -5 -5 -5 -5 -5 -5 -5
7 6 5 5 5 4 4 3 3 2 2 1 0 -0 -1 -1 -1 -2 -2 -2 -2 -4 -2 -2 -2 -3 -4 -4 -4 -5 -5 -6 -6 -5 -5 -5 -5 -5 -6 -6 -6 -6 -6
8 5 5 5 5 4 3 3 2 2 1 0 -0 -0 -1 -2 -2 -3 -3 -4 -4 -4 -3 -3 -3 -4 -5 -5 -5 -6 -6 -6 -6 -7 -7 -6 -6 -6 -7 -6 -7 -7 -7
6 6 4 4 4 4 3 3 2 1 1 0 -0 -1 -1 -1 -2 -3 -4 -5 -4 -4 -4 -4 -5 -5 -6 -6 -6 -7 -7 -7 -7 -8 -8 -8 -7 -8 -8 -8 -8 -7 -7
6 5 4 4 4 4 3 3 2 1 0 -0 -1 -1 -2 -2 -3 -4 -4 -4 -4 -4 -5 -6 -6 -6 -7 -7 -7 -7 -7 -8 -8 -9 -9 -10 -9 -9 -8 -8 -8 -8 -9
6 3 3 4 3 3 3 3 1 -0 -0 -1 -2 -3 -3 -4 -4 -5 -5 -5 -5 -6 -6 -6 -7 -7 -7 -7 -7 -8 -8 -9 -9 -10 -10 -11 -11 -12 -12 -10 -9 -10 -9
Height
1512 1516 1518 1520 1523 1525 1527 1528 1530 1532 1533 1534 1537 1539 1541 1543 1544 1546 1547 1547 1548 1548 1548 1548 1549 1549 1549 1550 1549 1549 1549 1548 1549 1549 1549 1549 1549 1548 1546 1546 1545 1545 1545
1507 1511 1515 1517 1519 1523 1526 1527 1528 1530 1532 1533 1535 1537 1539 1541 1543 1544 1545 1545 1547 1547 1548 1549 1549 1550 1550 1550 1550 1550 1550 1550 1550 1550 1549 1549 1549 1548 1547 1546 1546 1546 1546
1502 1505 1509 1514 1517 1519 1523 1525 1526 1529 1530 1532 1533 1535 1538 1539 1541 1543 1544 1545 1545 1545 1547 1549 1549 1550 1550 1550 1550 1550 1550 1550 1550 1550 1549 1549 1549 1548 1547 1546 1546 1546 1546
1497 1499 1501 1508 1512 1513 1518 1520 1523 1526 1528 1530 1531 1532 1535 1538 1540 1541 1542 1544 1545 1545 1546 1548 1549 1549 1549 1550 1550 1550 1550 1550 1550 1550 1550 1550 1550 1549 1548 1547 1547 1547 1546
1490 1493 1494 1501 1505 1506 1506 1516 1518 1521 1525 1527 1529 1531 1533 1536 1538 1539 1541 1542 1543 1545 1546 1547 1548 1549 1549 1549 1549 1549 1549 1549 1550 1551 1551 1551 1551 1550 1549 1548 1549 1548 1547
1487 1488 1488 1493 1499 1498 1501 1502 1514 1517 1521 1525 1526 1529 1530 1532 1535 1537 1538 1540 1541 1543 1545 1545 1546 1547 1548 1549 1549 1549 1549 1549 1550 1550 1550 1550 1550 1549 1549 1549 1549 1548 1547
1474 1480 1483 1485 1493 1494 1489 1501 1505 1512 1514 1518 1522 1525 1528 1530 1531 1534 1536 1537 1538 1540 1542 1543 1544 1546 1547 1548 1548 1548 1549 1549 1549 1549 1550 1549 1549 1548 1548 1548 1548 1548 1547
1463 1465 1470 1476 1480 1486 1485 1489 1492 1502 1505 1510 1513 1518 1523 1527 1527 1529 1532 1535 1535 1537 1539 1542 1542 1543 1545 1546 1547 1547 1548 1549 1549 1549 1549 1549 1549 1548 1548 1548 1547 1547 1546
1451 1455 1458 1462 1467 1473 1474 1479 1474 1489 1492 1498 1505 1507 1513 1513 1519 1524 1526 1530 1531 1534 1537 1539 1540 1541 1542 1544 1545 1546 1547 1548 1548 1548 1548 1548 1548 1548 1548 1547 1547 1546 1545
1439 1444 1447 1449 1452 1458 1460 1468 1465 1474 1480 1483 1493 1499 1499 1503 1507 1516 1521 1524 1527 1529 1532 1535 1538 1539 1541 1542 1543 1544 1545 1546 1547 1547 1547 1547 1547 1547 1547 1547 1546 1545 1544
1427 1430 1434 1436 1437 1441 1448 1454 1454 1460 1471 1477 1477 1484 1489 1496 1499 1502 1507 1514 1520 1524 1527 1531 1534 1536 1537 1539 1541 1542 1543 1544 1545 1545 1545 1545 1545 1546 1545 1546 1545 1544 1542
1418 1418 1420 1422 1421 1423 1426 1436 1447 1450 1457 1466 1467 1474 1476 1482 1488 1493 1499 1507 1512 1517 1522 1526 1530 1532 1534 1536 1537 1539 1540 1542 1543 1544 1544 1543 1543 1543 1543 1543 1543 1542 1541
1403 1406 1403 1409 1406 1404 1409 1412 1423 1434 1441 1449 1456 1463 1471 1477 1482 1488 1492 1500 1504 1511 1516 1521 1525 1528 1531 1532 1534 1535 1536 1538 1540 1541 1542 1541 1541 1541 1541 1540 1540 1539 1539
1399 1403 1398 1399 1405 1402 1380 1404 1413 1419 1433 1438 1449 1458 1466 1473 1477 1481 1485 1491 1500 1504 1508 1511 1517 1521 1525 1527 1531 1532 1533 1534 1536 1537 1537 1538 1538 1538 1537 1537 1536 1537 1536
1399 1393 1395 1400 1399 1409 1398 1394 1403 1419 1426 1436 1444 1450 1459 1467 1471 1477 1481 1484 1489 1495 1502 1506 1512 1516 1520 1522 1526 1529 1530 1532 1533 1533 1533 1534 1535 1535 1535 1534 1534 1533 1532
1397 1398 1393 1390 1391 1395 1398 1403 1407 1416 1426 1433 1435 1447 1448 1461 1464 1468 1476 1479 1486 1490 1497 1502 1506 1509 1514 1518 1521 1523 1525 1527 1530 1530 1530 1530 1531 1530 1530 1530 1529 1528 1528
1390 1397 1387 1391 1391 1392 1396 1404 1413 1414 1418 1425 1433 1443 1445 1454 1457 1461 1468 1475 1480 1487 1492 1496 1500 1504 1508 1512 1515 1517 1520 1523 1525 1526 1527 1527 1526 1525 1525 1525 1524 1524 1523
1391 1389 1391 1391 1382 1389 1397 1404 1409 1415 1419 1423 1429 1437 1443 1448 1451 1456 1462 1469 1474 1481 1484 1491 1493 1498 1502 1507 1511 1513 1515 1518 1519 1521 1523 1522 1523 1522 1522 1521 1519 1518 1517
1392 1393 1392 1385 1386 1386 1398 1403 1408 1415 1419 1423 1427 1433 1438 1441 1447 1451 1456 1462 1467 1471 1477 1481 1487 1492 1496 1501 1504 1507 1510 1513 1515 1515 1517 1518 1518 1517 1517 1517 1516 1514 1511
1388 1392 1390 1389 1388 1390 1395 1401 1403 1409 1416 1421 1425 1428 1434 1439 1444 1447 1451 1455 1459 1464 1471 1476 1482 1487 1491 1496 1499 1502 1505 1508 1510 1511 1512 1514 1514 1513 1512 1510 1509 1508 1506
1387 1390 1388 1386 1388 1390 1392 1396 1400 1405 1411 1419 1425 1429 1432 1435 1438 1443 1446 1450 1456 1460 1466 1474 1479 1483 1486 1490 1493 1497 1501 1503 1505 1506 1507 1508 1508 1507 1506 1505 1505 1502 1500
1384 1386 1385 1382 1386 1388 1391 1395 1398 1402 1410 1415 1421 1427 1431 1433 1434 1440 1445 1449 1452 1458 1464 1469 1474 1478 1481 1485 1488 1492 1496 1499 1501 1501 1501 1502 1501 1500 1501 1501 1500 1497 1495
1381 1382 1380 1381 1382 1388 1390 1391 1395 1401 1406 1409 1415 1421 1427 1429 1433 1439 1442 1448 1453 1458 1464 1468 1469 1474 1478 1480 1486 1488 1490 1493 1495 1494 1494 1495 1494 1493 1494 1495 1492 1491 1488
1377 1376 1377 1377 1380 1382 1388 1389 1390 1397 1402 1406 1412 1416 1423 1426 1430 1436 1441 1445 1452 1457 1461 1464 1466 1469 1475 1478 1480 1485 1486 1487 1489 1490 1487 1489 1489 1486 1485 1488 1487 1483 1481
1372 1371 1373 1375 1379 1380 1384 1385 1388 1394 1399 1403 1409 1412 1416 1423 1429 1433 1436 1442 1447 1452 1457 1460 1463 1467 1470 1474 1476 1477 1479 1482 1484 1483 1483 1482 1483 1480 1482 1479 1479 1477 1476
1367 1367 1369 1371 1374 1376 1379 1382 1386 1391 1394 1399 1404 1411 1415 1421 1427 1432 1435 1437 1442 1447 1452 1456 1459 1462 1465 1469 1472 1473 1475 1476 1478 1477 1478 1479 1476 1477 1471 1470 1471 1470 1469
Wind_Speed
30 28 26 26 25 25 24 23 22 22 21 19 18 15 13 11 9 8 8 8 8 4 1 4 5 4 4 5 6 6 7 7 8 8 8 7 6 6 5 5 4 4 3
31 28 28 28 27 26 24 23 23 23 21 20 19 17 15 12 10 9 9 10 10 9 4 3 3 3 3 3 3 4 5 6 7 7 7 7 7 7 7 7 6 6 6
35 30 29 29 28 27 26 26 26 25 23 22 20 18 16 14 12 10 10 11 11 8 5 3 1 1 1 2 2 3 4 5 5 6 6 7 7 7 7 8 9 10 10
37 33 31 32 30 29 28 29 29 28 26 24 22 20 18 15 13 11 11 11 11 10 8 5 3 1 1 2 2 3 3 4 5 6 6 6 6 7 8 9 9 9 9
41 39 34 34 33 34 33 31 31 30 28 26 23 20 19 16 14 12 12 12 12 10 8 7 5 3 2 1 2 3 4 4 4 4 5 5 6 6 7 8 8 9 9
44 41 37 37 38 38 34 35 33 31 28 27 25 23 20 17 14 13 12 12 11 11 9 7 5 4 3 3 2 2 3 3 3 3 4 5 5 7 7 8 9 9 9
46 46 44 38 38 40 36 37 35 34 31 31 28 25 21 18 16 15 14 13 13 12 10 8 6 5 4 4 3 2 1 1 1 2 3 4 6 7 8 8 9 9 9
51 50 48 46 45 49 46 44 39 39 37 35 35 32 21 20 21 20 18 15 14 13 11 9 8 7 5 4 4 4 2 1 2 2 3 4 5 6 7 8 9 10 10
55 53 53 53 51 50 48 48 43 48 45 41 40 26 13 13 26 25 23 19 17 15 13 10 9 8 7 5 4 4 3 2 2 3 3 4 6 7 7 8 9 10 11
59 58 57 56 58 56 55 55 48 51 51 48 46 42 22 14 16 17 27 24 21 18 15 12 11 8 7 5 4 4 3 3 3 4 4 5 6 7 8 9 10 10 11
61 58 61 62 63 63 61 60 57 55 53 49 48 48 38 21 17 14 23 32 28 23 19 14 11 9 8 6 5 4 4 4 4 5 6 6 6 7 7 8 9 10 11
59 61 62 66 68 69 68 61 56 55 53 53 47 48 47 43 30 20 14 29 32 29 24 19 16 13 11 8 6 5 5 6 6 6 6 6 6 7 7 8 9 10 11
57 60 63 58 73 71 70 64 62 58 56 54 51 47 46 43 34 27 19 22 29 26 26 23 20 17 15 10 9 9 5 6 7 7 8 8 7 7 7 8 8 9 11
37 43 43 47 57 59 70 62 64 57 53 50 46 43 43 42 37 30 25 21 19 24 30 29 28 23 17 13 16 12 12 7 8 8 9 10 9 9 8 8 9 10 11
22 21 28 32 37 35 54 46 47 38 44 45 42 40 38 40 37 28 23 20 20 21 30 29 25 27 23 20 19 17 13 13 12 11 11 11 12 12 11 11 12 12 14
19 21 19 26 34 31 30 28 34 38 39 38 37 34 33 35 32 28 24 21 22 18 16 28 28 25 26 25 23 19 17 18 15 13 12 13 14 14 13 13 15 16 17
10 12 13 16 22 25 27 27 33 38 38 37 33 36 33 34 30 26 27 29 26 21 20 21 29 24 24 29 27 22 22 20 18 17 14 13 15 15 14 16 18 20 21
13 8 8 10 6 15 20 25 26 27 30 31 34 34 35 37 33 34 31 30 29 25 25 25 23 26 26 27 27 26 24 22 19 17 15 16 17 18 18 19 19 20 22
9 11 6 7 10 9 18 21 24 27 28 29 31 33 37 34 31 29 27 28 28 30 30 27 24 25 27 30 32 29 27 23 22 19 20 20 20 22 21 21 21 22 23
16 16 15 5 9 6 14 20 17 20 21 23 27 26 30 34 39 36 34 34 30 28 26 20 22 24 26 32 30 29 28 26 22 23 23 22 23 24 24 22 23 23 23
16 16 14 12 10 17 11 19 25 22 24 27 26 27 24 18 20 21 23 24 26 25 22 23 20 21 24 27 32 30 28 23 24 24 24 23 25 26 23 22 23 23 24
18 16 14 16 22 23 21 23 22 25 26 22 20 21 20 17 16 17 17 18 21 26 25 23 23 23 27 32 30 28 28 23 24 24 24 26 26 24 24 23 22 23 24
20 20 16 14 18 19 21 21 23 25 24 22 22 19 22 20 19 20 20 19 18 21 18 18 17 21 27 28 26 22 22 23 22 24 24 22 21 21 22 21 21 23 24
21 20 20 14 15 20 18 18 16 22 24 22 20 18 19 17 18 18 19 20 21 19 18 18 16 17 16 16 17 19 21 21 19 18 19 18 19 20 21 21 22 22 22
22 19 19 17 19 17 17 16 16 21 24 22 21 19 16 18 18 19 18 19 18 18 17 16 15 15 17 18 18 17 15 15 14 13 16 18 15 21 24 22 19 18 18
22 17 19 19 19 20 17 17 17 22 25 25 22 20 19 19 19 19 17 15 16 16 15 14 14 14 12 12 13 13 14 12 12 11 12 14 18 21 16 21 17 27 28
Wind_Direction
218 219 217 213 212 211 212 214 216 215 209 205 206 211 218 217 210 200 191 181 183 186 155 84 85 70 56 46 47 45 41 40 46 47 46 44 40 41 37 31 25 19 5
219 221 222 218 214 214 216 217 219 217 214 210 208 209 215 216 207 196 188 187 182 186 176 118 99 80 70 51 39 40 47 49 48 49 51 53 49 46 44 38 29 26 22
222 220 223 224 219 215 216 216 216 218 216 211 210 210 212 210 205 197 192 192 198 213 212 198 243 56 53 47 35 36 47 50 54 53 53 54 54 50 42 39 33 31 30
227 221 219 225 223 218 219 216 215 215 216 214 211 208 208 207 204 199 194 191 199 209 215 210 220 227 338 27 42 46 64 63 64 66 65 62 57 52 48 47 41 35 31
231 227 221 222 222 221 215 218 216 217 216 213 211 206 204 206 208 204 199 196 199 208 213 204 211 219 206 146 95 76 77 79 74 68 62 54 47 42 38 36 32 28 24
233 230 225 223 224 220 216 214 219 216 218 215 204 200 198 199 202 207 206 205 204 208 205 198 195 197 192 172 153 116 91 87 77 66 52 40 34 32 29 26 22 19 16
241 232 232 225 227 224 219 219 215 218 209 211 201 191 190 197 201 204 206 208 209 209 207 203 193 185 182 193 183 187 158 96 50 41 33 27 20 19 18 17 15 14 10
239 229 230 226 222 225 218 215 214 212 212 209 203 190 183 196 201 203 203 206 208 211 209 209 198 199 204 201 198 210 224 276 341 359 8 2 0 7 9 5 359 360 359
237 235 233 227 225 226 220 218 214 219 213 205 209 194 178 200 200 203 202 207 207 211 210 211 208 211 214 216 216 218 227 245 285 309 329 335 341 350 354 352 350 354 353
244 235 235 230 229 224 222 221 219 220 217 209 203 209 207 204 177 189 203 207 207 209 212 212 212 218 218 215 220 228 235 240 263 293 309 319 330 339 345 344 343 345 346
251 242 235 234 230 224 224 221 216 214 218 217 213 208 207 207 195 179 192 202 205 207 210 211 215 219 216 214 228 242 245 243 252 267 277 294 310 323 330 328 330 332 335
249 248 241 239 232 225 222 221 222 218 219 220 219 219 215 211 201 194 182 202 206 204 205 209 214 219 216 217 233 240 248 247 257 267 274 281 289 300 306 310 320 327 329
250 248 246 243 236 229 221 217 215 215 215 219 220 221 221 220 221 219 209 192 198 201 202 210 215 219 220 224 245 238 244 257 263 277 279 281 285 292 302 309 313 318 318
238 238 244 244 243 235 217 216 213 210 214 218 220 222 221 221 223 223 218 209 179 192 201 210 211 216 215 238 253 236 244 257 276 281 278 286 293 289 289 295 301 306 310
269 261 247 250 257 245 225 218 216 219 216 216 217 217 216 220 219 216 221 215 212 191 203 210 211 217 222 236 228 234 239 252 263 273 287 298 296 296 296 301 305 306 309
312 301 271 260 253 237 234 222 222 207 210 206 207 212 205 215 214 211 224 221 212 206 216 220 216 221 222 232 219 225 237 246 258 269 279 289 296 297 297 298 303 305 305
351 296 307 260 244 234 232 225 220 213 213 214 207 214 213 215 216 206 200 211 220 217 215 221 220 225 227 220 217 218 236 248 253 261 268 278 284 288 297 303 305 307 307
4 359 282 279 266 241 244 238 221 215 209 206 201 219 220 210 207 215 218 222 224 217 213 216 217 222 217 214 216 223 233 240 249 255 260 273 278 290 300 297 299 299 300
342 323 351 312 259 241 237 236 227 226 225 221 214 217 225 215 204 214 218 224 217 220 217 220 213 213 208 202 205 216 229 235 244 253 267 276 284 289 293 295 299 297 298
288 282 294 274 281 215 234 230 227 230 233 234 230 226 220 222 233 240 240 239 226 215 214 199 201 197 203 204 218 221 220 231 242 256 267 277 284 288 288 291 292 293 294
305 289 279 237 280 228 241 223 229 228 229 219 231 238 238 239 238 230 226 231 231 204 189 197 207 212 209 208 207 214 222 232 243 254 265 276 280 282 285 290 292 293 292
301 286 287 271 251 242 236 224 226 217 222 224 229 225 229 226 221 231 226 215 212 189 198 215 226 218 211 211 213 210 229 233 243 255 262 268 271 276 282 286 289 288 291
305 287 271 262 256 249 240 226 226 219 219 217 215 216 212 214 211 205 198 181 178 188 209 225 224 223 220 227 228 226 224 234 246 257 262 266 272 275 279 284 288 292 297
297 289 266 260 248 247 236 231 218 216 214 211 211 205 209 208 208 203 187 181 188 196 210 238 233 218 215 215 212 225 242 249 250 256 268 276 277 282 283 290 294 296 299
297 288 266 253 239 236 237 240 215 204 206 205 200 202 202 205 199 191 181 185 197 219 221 213 213 216 222 232 237 238 237 243 249 260 270 281 283 291 294 299 299 301 304
288 276 256 245 238 236 235 240 225 206 201 195 193 194 194 191 181 180 191 203 205 204 210 212 212 217 219 225 232 235 241 245 255 270 270 282 299 312 313 307 304 309 306